When you browse on this site, cookies collect data to enhance your experience and personalize the content and advertising you see.
Visit our Privacy Policy to learn more. By continuing to use the site, you agree to this use of cookies and data.
  • In Hungary
  • List of Countries
  • For 7 days
  • Water Temperature
  • Weather Map
  • News
  • Weather Widgets
  • user-avatar
    Login

    Hourly Weather Shabrino

    Today, 14 October, Monday

    Time Temperature Precipitation Wind Pressure Humidity
    00:00 +6°C° 0 mm 4 mps 737 mmHg 89%
    01:00 +6°C° 0 mm 4 mps 736 mmHg 88%
    02:00 +5°C° 0 mm 4 mps 737 mmHg 89%
    03:00 +5°C° 0 mm 5 mps 737 mmHg 91%
    04:00 +5°C° 0 mm 5 mps 737 mmHg 93%
    05:00 +5°C° 0 mm 5 mps 737 mmHg 93%
    06:00 +4°C° 0 mm 6 mps 737 mmHg 92%
    07:00 +4°C° 0 mm 6 mps 737 mmHg 91%
    08:00 +5°C° 0 mm 6 mps 738 mmHg 88%
    09:00 +7°C° 0 mm 6 mps 738 mmHg 85%
    10:00 +6°C° 0 mm 7 mps 739 mmHg 82%
    11:00 +8°C° 0.1 mm 7 mps 739 mmHg 79%
    12:00 +8°C° 0.1 mm 7 mps 740 mmHg 76%
    13:00 +8°C° 0.1 mm 7 mps 740 mmHg 73%
    14:00 +8°C° 0.1 mm 7 mps 740 mmHg 75%
    15:00 +8°C° 0.1 mm 6 mps 741 mmHg 77%
    16:00 +8°C° 0 mm 6 mps 741 mmHg 78%
    17:00 +7°C° 0 mm 6 mps 741 mmHg 81%
    18:00 +7°C° 0 mm 6 mps 742 mmHg 83%
    19:00 +7°C° 0 mm 6 mps 742 mmHg 86%
    20:00 +6°C° 0 mm 5 mps 742 mmHg 86%
    21:00 +6°C° 0 mm 5 mps 742 mmHg 87%
    22:00 +6°C° 0 mm 5 mps 742 mmHg 87%
    23:00 +5°C° 0 mm 5 mps 742 mmHg 88%

    Tomorrow, 15 October, Tuesday

    Time Temperature Precipitation Wind Pressure Humidity
    00:00 +5°C° 0 mm 4 mps 742 mmHg 90%
    01:00 +4°C° 0 mm 4 mps 742 mmHg 91%
    02:00 +4°C° 0 mm 4 mps 742 mmHg 91%
    03:00 +4°C° 0 mm 4 mps 741 mmHg 92%
    04:00 +5°C° 0 mm 4 mps 741 mmHg 92%
    05:00 +5°C° 1.4 mm 4 mps 740 mmHg 93%
    06:00 +5°C° 1.4 mm 4 mps 739 mmHg 95%
    07:00 +5°C° 1.4 mm 4 mps 738 mmHg 97%
    08:00 +6°C° 1.6 mm 4 mps 737 mmHg 97%
    09:00 +7°C° 1.6 mm 5 mps 736 mmHg 97%
    10:00 +8°C° 1.6 mm 5 mps 736 mmHg 97%
    11:00 +9°C° 0.5 mm 6 mps 735 mmHg 95%
    12:00 +10°C° 0.5 mm 6 mps 735 mmHg 93%
    13:00 +11°C° 0.5 mm 7 mps 735 mmHg 91%
    14:00 +11°C° 0.6 mm 6 mps 735 mmHg 91%
    15:00 +11°C° 0.6 mm 6 mps 735 mmHg 90%
    16:00 +10°C° 0.6 mm 5 mps 735 mmHg 90%
    17:00 +10°C° 0.2 mm 5 mps 736 mmHg 90%
    18:00 +9°C° 0.2 mm 6 mps 737 mmHg 90%
    19:00 +8°C° 0.2 mm 6 mps 737 mmHg 89%
    20:00 +8°C° 0.1 mm 6 mps 738 mmHg 88%
    21:00 +7°C° 0.1 mm 5 mps 739 mmHg 87%
    22:00 +6°C° 0.1 mm 5 mps 740 mmHg 86%
    23:00 +6°C° 0.1 mm 5 mps 740 mmHg 85%

    Day after tomorrow, 16 October, Wednesday

    Time Temperature Precipitation Wind Pressure Humidity
    00:00 +4°C° 0.1 mm 6 mps 741 mmHg 84%
    01:00 +4°C° 0.1 mm 6 mps 741 mmHg 84%
    02:00 +3°C° 0 mm 6 mps 742 mmHg 83%
    03:00 +2°C° 0 mm 6 mps 743 mmHg 82%
    04:00 +2°C° 0 mm 7 mps 744 mmHg 81%
    05:00 +1°C° 0 mm 6 mps 744 mmHg 80%
    06:00 +1°C° 0 mm 6 mps 744 mmHg 78%
    07:00 +1°C° 0 mm 5 mps 745 mmHg 77%
    08:00 +1°C° 0 mm 5 mps 745 mmHg 75%
    09:00 +2°C° 0 mm 6 mps 746 mmHg 74%
    10:00 +2°C° 0 mm 6 mps 747 mmHg 72%
    11:00 +2°C° 0 mm 6 mps 747 mmHg 72%
    12:00 +2°C° 0 mm 6 mps 748 mmHg 72%
    13:00 +2°C° 0 mm 6 mps 748 mmHg 71%
    14:00 +2°C° 0 mm 6 mps 749 mmHg 70%
    15:00 +2°C° 0 mm 6 mps 749 mmHg 69%
    16:00 +2°C° 0 mm 5 mps 749 mmHg 68%
    17:00 +2°C° 0 mm 5 mps 750 mmHg 72%
    18:00 +1°C° 0 mm 4 mps 750 mmHg 76%
    19:00 +1°C° 0 mm 3 mps 750 mmHg 80%
    20:00 +2°C° 0 mm 2 mps 751 mmHg 82%
    21:00 +1°C° 0 mm 2 mps 751 mmHg 84%
    22:00 +2°C° 0 mm 1 mps 751 mmHg 86%
    23:00 +2°C° 0 mm 1 mps 751 mmHg 87%

    17 October, Thursday

    Time Temperature Precipitation Wind Pressure Humidity
    00:00 +1°C° 0 mm 1 mps 752 mmHg 88%
    01:00 +1°C° 0 mm 1 mps 752 mmHg 89%
    02:00 +1°C° 0 mm 1 mps 752 mmHg 89%
    03:00 +1°C° 0 mm 1 mps 752 mmHg 90%
    04:00 +1°C° 0 mm 1 mps 752 mmHg 90%
    05:00 +1°C° 0 mm 1 mps 752 mmHg 90%
    06:00 +1°C° 0 mm 1 mps 752 mmHg 89%
    07:00 -1°C° 0 mm 2 mps 752 mmHg 88%
    08:00 0°C° 0 mm 3 mps 752 mmHg 86%
    09:00 +1°C° 0 mm 3 mps 752 mmHg 84%
    10:00 0°C° 0 mm 4 mps 752 mmHg 82%
    11:00 +1°C° 0 mm 5 mps 751 mmHg 79%
    12:00 +2°C° 0 mm 5 mps 751 mmHg 75%
    13:00 +2°C° 0 mm 6 mps 750 mmHg 72%
    14:00 +2°C° 0 mm 6 mps 749 mmHg 73%
    15:00 +2°C° 0 mm 6 mps 749 mmHg 74%
    16:00 +2°C° 0 mm 6 mps 748 mmHg 75%
    17:00 +3°C° 0 mm 6 mps 748 mmHg 74%
    18:00 +3°C° 0 mm 7 mps 747 mmHg 72%
    19:00 +2°C° 0 mm 8 mps 746 mmHg 71%
    20:00 +2°C° 0 mm 8 mps 746 mmHg 71%
    21:00 +1°C° 0 mm 8 mps 745 mmHg 71%
    22:00 +1°C° 0 mm 8 mps 745 mmHg 71%
    23:00 +1°C° 0 mm 8 mps 744 mmHg 70%

    18 October, Friday

    Time Temperature Precipitation Wind Pressure Humidity
    00:00 +1°C° 0 mm 8 mps 744 mmHg 70%
    01:00 +1°C° 0 mm 8 mps 743 mmHg 69%
    02:00 +2°C° 0 mm 7 mps 743 mmHg 70%
    03:00 +2°C° 0 mm 7 mps 742 mmHg 71%
    04:00 +2°C° 0 mm 7 mps 742 mmHg 72%
    05:00 +2°C° 0.6 mm 7 mps 741 mmHg 77%
    06:00 +2°C° 0.6 mm 6 mps 741 mmHg 82%
    07:00 +2°C° 0.6 mm 6 mps 741 mmHg 87%
    08:00 +3°C° 0.2 mm 6 mps 742 mmHg 88%
    09:00 +3°C° 0.2 mm 5 mps 742 mmHg 89%
    10:00 +3°C° 0.2 mm 5 mps 742 mmHg 89%
    11:00 +3°C° 0 mm 5 mps 743 mmHg 83%
    12:00 +3°C° 0 mm 5 mps 743 mmHg 77%
    13:00 +2°C° 0 mm 5 mps 744 mmHg 71%
    14:00 +2°C° 0 mm 5 mps 744 mmHg 71%
    15:00 +2°C° 0 mm 5 mps 745 mmHg 70%
    16:00 +2°C° 0 mm 5 mps 745 mmHg 70%
    17:00 +1°C° 0 mm 5 mps 746 mmHg 71%
    18:00 +1°C° 0 mm 5 mps 746 mmHg 72%
    19:00 0°C° 0 mm 5 mps 747 mmHg 73%
    20:00 0°C° 0 mm 5 mps 747 mmHg 72%
    21:00 0°C° 0 mm 5 mps 748 mmHg 72%
    22:00 -1°C° 0 mm 5 mps 748 mmHg 72%
    23:00 -1°C° 0 mm 5 mps 749 mmHg 75%

    19 October, Saturday

    Time Temperature Precipitation Wind Pressure Humidity
    00:00 -2°C° 0 mm 5 mps 749 mmHg 79%
    01:00 -2°C° 0 mm 5 mps 750 mmHg 82%
    02:00 -3°C° 0 mm 4 mps 750 mmHg 83%
    03:00 -3°C° 0 mm 4 mps 751 mmHg 84%
    04:00 -3°C° 0 mm 4 mps 751 mmHg 85%
    05:00 -3°C° 0 mm 4 mps 751 mmHg 84%
    06:00 -3°C° 0 mm 4 mps 752 mmHg 83%
    07:00 -3°C° 0 mm 4 mps 752 mmHg 82%
    08:00 -3°C° 0 mm 4 mps 753 mmHg 77%
    09:00 -2°C° 0 mm 4 mps 753 mmHg 73%
    10:00 -2°C° 0 mm 4 mps 754 mmHg 69%
    11:00 -1°C° 0 mm 4 mps 754 mmHg 65%
    12:00 0°C° 0 mm 4 mps 754 mmHg 61%
    13:00 +2°C° 0 mm 3 mps 754 mmHg 57%
    14:00 +2°C° 0 mm 3 mps 754 mmHg 58%
    15:00 +2°C° 0 mm 3 mps 754 mmHg 58%
    16:00 +3°C° 0 mm 2 mps 754 mmHg 58%
    17:00 +2°C° 0 mm 2 mps 754 mmHg 62%
    18:00 +1°C° 0 mm 2 mps 755 mmHg 65%
    19:00 -1°C° 0 mm 2 mps 755 mmHg 69%
    20:00 -1°C° 0 mm 2 mps 755 mmHg 69%
    21:00 0°C° 0 mm 1 mps 755 mmHg 70%
    22:00 0°C° 0 mm 1 mps 755 mmHg 70%
    23:00 0°C° 0 mm 1 mps 755 mmHg 70%
    Show more